Alma, GA

4:21 AM EST on February 07, 2016 (GMT -0500)
Bacon County

Weather History for KAMG - November, 2013

Change the Weather History Date:

Tuesday, November 5, 2013

  Actual Average Record
Temperature  
Mean Temperature 62 °F 63 °F  
Max Temperature 71 °F 74 °F 86 °F (1959)
Min Temperature 52 °F 51 °F 29 °F (1952)
Degree Days  
Heating Degree Days 3 4  
Month to date heating degree days 19 20  
Since 1 July heating degree days 63 70  
Cooling Degree Days 0 2  
Month to date cooling degree days 7 10  
Year to date cooling degree days 2303 2435  
Growing Degree Days 10 (Base 50)    
Moisture  
Dew Point 50 °F    
Average Humidity 73    
Maximum Humidity 100    
Minimum Humidity 45    
Precipitation  
Precipitation 0.00 in 0.08 in 1.32 in (1977)
Month to date precipitation 0.59 0.40  
Year to date precipitation 46.30 41.28  
Snow  
Snow 0.00 in 0.00 in 0.00 in ()
Month to date snowfall 0.0 0.0  
Since 1 July snowfall 0.0 0.0  
Since 1 September snowfall 0.0 0.0  
Snow Depth 0.00 in    
Sea Level Pressure  
Sea Level Pressure 30.31 in    
Wind  
Wind Speed 7 mph (NE)    
Max Wind Speed 14 mph    
Max Gust Speed 20 mph    
Visibility 10 miles    
Events      
T = Trace of Precipitation, MM = Missing Value Source: NWS Daily Summary

Daily Weather History Graph

Daily Weather History Graph

Search for Another Location

Airport or City:

Trip Planner

Search our weather history database for the weather conditions in past years. The results will help you decide how hot, cold, wet, or windy it might be!

Date:

Astronomy

Nov. 05, 2013 Rise Set
Actual Time 6:49 AM EST 5:37 PM EST
Civil Twilight 6:24 AM EST 6:02 PM EST
Nautical Twilight 5:55 AM EST 6:31 PM EST
Astronomical Twilight 5:26 AM EST 7:00 PM EST
Moon 8:58 AM EST (11/5) 7:42 PM EST (11/5)
Length of Visible Light 11h 38m
Length of Day
10h 47m
Waxing Crescent, 6% of the Moon is Illuminated
Nov 5
Waxing Crescent
Nov 10
First Quarter
Nov 17
Full
Nov 25
Last Quarter
Dec 2
New

Hourly Weather History & Observations

Time (EST) Temp. Dew Point Humidity Pressure Visibility Wind Dir Wind Speed Gust Speed Precip Events Conditions
12:53 AM 52.0 °F 39.0 °F 61% 30.33 in 10.0 mi Variable 5.8 mph - N/A   Clear
1:53 AM 52.0 °F 39.9 °F 63% 30.32 in 10.0 mi Variable 5.8 mph - N/A   Mostly Cloudy
2:53 AM 52.0 °F 42.1 °F 69% 30.32 in 10.0 mi NNE 5.8 mph - N/A   Scattered Clouds
3:53 AM 53.1 °F 44.1 °F 71% 30.32 in 10.0 mi Variable 4.6 mph - N/A   Overcast
4:53 AM 53.1 °F 44.1 °F 71% 30.32 in 10.0 mi Variable 4.6 mph - N/A   Overcast
5:53 AM 52.0 °F 44.1 °F 74% 30.34 in 10.0 mi NE 6.9 mph - N/A   Overcast
6:53 AM 52.0 °F 43.0 °F 71% 30.35 in 10.0 mi Variable 4.6 mph - N/A   Overcast
7:53 AM 52.0 °F 41.0 °F 66% 30.35 in 10.0 mi Variable 6.9 mph 17.3 mph N/A   Scattered Clouds
8:53 AM 54.0 °F 41.0 °F 62% 30.37 in 10.0 mi North 8.1 mph - N/A   Clear
9:53 AM 57.0 °F 43.0 °F 59% 30.38 in 10.0 mi Variable 5.8 mph - N/A   Overcast
10:53 AM 59.0 °F 44.1 °F 58% 30.38 in 10.0 mi Variable 4.6 mph - N/A   Overcast
11:53 AM 63.0 °F 46.0 °F 54% 30.35 in 10.0 mi North 8.1 mph - N/A   Overcast
12:53 PM 66.0 °F 46.9 °F 50% 30.31 in 10.0 mi NNE 8.1 mph - N/A   Overcast
1:53 PM 68.0 °F 46.9 °F 47% 30.29 in 10.0 mi Variable 6.9 mph - N/A   Overcast
2:53 PM 69.1 °F 48.0 °F 47% 30.28 in 10.0 mi NE 11.5 mph 17.3 mph N/A   Scattered Clouds
3:53 PM 69.1 °F 48.9 °F 49% 30.27 in 10.0 mi NE 8.1 mph - N/A   Overcast
4:53 PM 66.9 °F 48.9 °F 52% 30.28 in 10.0 mi Variable 5.8 mph - N/A   Mostly Cloudy
5:53 PM 64.9 °F 51.1 °F 61% 30.27 in 10.0 mi NE 3.5 mph - N/A   Overcast
6:53 PM 66.0 °F 51.1 °F 59% 30.28 in 10.0 mi Variable 5.8 mph - N/A   Overcast
7:31 PM 64.4 °F 51.8 °F 64% 30.29 in 10.0 mi ENE 6.9 mph - N/A   Overcast
7:40 PM 64.4 °F 53.6 °F 68% 30.29 in 10.0 mi ENE 8.1 mph - N/A   Overcast
7:53 PM 64.0 °F 54.0 °F 70% 30.29 in 10.0 mi ENE 9.2 mph 19.6 mph N/A   Overcast
8:22 PM 62.6 °F 57.2 °F 82% 30.29 in 9.0 mi ENE 6.9 mph - N/A   Overcast
8:53 PM 61.0 °F 59.0 °F 93% 30.29 in 10.0 mi NNE 4.6 mph - N/A   Overcast
9:01 PM 62.6 °F 59.0 °F 88% 30.29 in 10.0 mi Variable 4.6 mph - N/A   Overcast
9:39 PM 60.8 °F 60.8 °F 100% 30.29 in 10.0 mi NE 9.2 mph - N/A   Overcast
9:53 PM 61.0 °F 60.1 °F 97% 30.29 in 10.0 mi NE 8.1 mph - N/A   Overcast
10:11 PM 60.8 °F 60.8 °F 100% 30.28 in 10.0 mi NE 5.8 mph - N/A   Overcast
10:53 PM 61.0 °F 61.0 °F 100% 30.28 in 10.0 mi NE 6.9 mph - N/A   Overcast
11:53 PM 61.0 °F 60.1 °F 97% 30.27 in 10.0 mi ENE 9.2 mph 16.1 mph N/A   Overcast